Regional Weather Roundup
Issued by NWS

Home | Current Version | Previous Version | Graphics & Text | Print | Product List | Glossary On
Versions: 1 2 3 4 5 6 7 8 9 10 11 12 13 14 15 16 17 18 19 20 21 22 23 24 25 26 27 28 29 30 31 32 33 34 35 36 37 38 39 40 41 42 43 44 45 46 47 48 49 50
000
ASUS43 KLMK 160302
RWRKY
KENTUCKY REGIONAL WEATHER ROUNDUP
NATIONAL WEATHER SERVICE LOUISVILLE KY
1100 PM EDT TUE AUG 15 2017

NOTE "FAIR" INDICATES FEW OR NO CLOUDS BELOW 12,000 FEET
WITH NO SIGNIFICANT WEATHER AND/OR OBSTRUCTIONS TO VISIBILITY.

KYZ001>023-026-027-061>063-070>075-160400-
WESTERN AND SOUTH CENTRAL KENTUCKY

CITY           SKY/WX    TMP DP  RH WIND       PRES   REMARKS
PADUCAH        CLEAR     77  72  84 SW5       29.95R
HENDERSON      CLEAR     72  71  97 CALM      29.95R
OWENSBORO      CLEAR     75  71  87 SE3       29.95R
HOPKINSVILLE   PTCLDY    76  70  82 S6        29.98R
BOWLING GREEN  PTCLDY    79  73  82 S5        29.97R
GLASGOW        PTCLDY    73  73 100 CALM      29.98R
$$

KYZ024-025-028>034-038-045-046-053-160400-
NORTH CENTRAL KENTUCKY

CITY           SKY/WX    TMP DP  RH WIND       PRES   REMARKS
LOUISVILLE/SDF PTCLDY    83  69  62 SW3       29.95R
LOUISVILLE/LOU PTCLDY    76  72  87 CALM      29.96R
FORT KNOX      PTCLDY    71  69  95 CALM      29.96S
$$

KYZ035>037-039>044-047>052-055>060-089>105-160400-
NORTHEAST KENTUCKY

CITY           SKY/WX    TMP DP  RH WIND       PRES   REMARKS
LEXINGTON      PTCLDY    76  69  79 CALM      29.99R
COVINGTON      PTCLDY    72  70  93 CALM      29.97R
FRANKFORT      CLOUDY    75  69  81 CALM      29.97R
$$

KYZ054-064>069-076>088-106>120-160400-
SOUTHEAST KENTUCKY

CITY           SKY/WX    TMP DP  RH WIND       PRES   REMARKS
JACKSON        PTCLDY    74  72  93 CALM      30.01R
LONDON         CLOUDY    74  72  93 CALM      30.01R
SOMERSET       NOT AVBL
MIDDLESBORO    CLOUDY    73  72  98 CALM      30.02R
MONTICELLO     MOCLDY    71  71 100 W13       30.03R
$$





USA.gov is the U.S. government's official web portal to all federal, state and local government web resources and services.